When you browse on this site, cookies collect data to enhance your experience and personalize the content and advertising you see.
Visit our Privacy Policy to learn more. By continuing to use the site, you agree to this use of cookies and data.
  • In Netherlands
  • List of Countries
  • For 7 days
  • Water Temperature
  • Satellite Maps
  • Weather Map
  • Weather Widgets
  • user-avatar
    Login

    Hourly Weather Krynicy

    Today, 16 January, Wednesday

    Time Temperature Precipitation Wind Pressure Humidity
    00:00 -12°C° 0 mm 2 mps 724 mmHg 95%
    01:00 -12°C° 0 mm 2 mps 724 mmHg 96%
    02:00 -13°C° 0 mm 2 mps 724 mmHg 96%
    03:00 -12°C° 0 mm 2 mps 724 mmHg 96%
    04:00 -12°C° 0 mm 2 mps 725 mmHg 95%
    05:00 -10°C° 0 mm 2 mps 725 mmHg 95%
    06:00 -10°C° 0 mm 2 mps 725 mmHg 95%
    07:00 -9°C° 0 mm 2 mps 725 mmHg 95%
    08:00 -10°C° 0 mm 3 mps 726 mmHg 95%
    09:00 -9°C° 0 mm 3 mps 726 mmHg 95%
    10:00 -8°C° 0 mm 3 mps 727 mmHg 94%
    11:00 -8°C° 0 mm 4 mps 728 mmHg 93%
    12:00 -8°C° 0 mm 4 mps 728 mmHg 91%
    13:00 -7°C° 0 mm 4 mps 729 mmHg 90%
    14:00 -7°C° 0 mm 4 mps 729 mmHg 88%
    15:00 -8°C° 0 mm 4 mps 730 mmHg 90%
    16:00 -9°C° 0 mm 4 mps 730 mmHg 91%
    17:00 -9°C° 0 mm 3 mps 731 mmHg 93%
    18:00 -10°C° 0 mm 3 mps 731 mmHg 95%
    19:00 -12°C° 0 mm 3 mps 732 mmHg 96%
    20:00 -12°C° 0 mm 2 mps 732 mmHg 97%
    21:00 -13°C° 0 mm 3 mps 732 mmHg 96%
    22:00 -13°C° 0 mm 3 mps 732 mmHg 95%
    23:00 -14°C° 0 mm 3 mps 732 mmHg 94%

    Tomorrow, 17 January, Thursday

    Time Temperature Precipitation Wind Pressure Humidity
    00:00 -12°C° 0 mm 4 mps 732 mmHg 94%
    01:00 -11°C° 0 mm 4 mps 732 mmHg 95%
    02:00 -11°C° 0 mm 5 mps 732 mmHg 95%
    03:00 -10°C° 0.2 mm 5 mps 731 mmHg 94%
    04:00 -9°C° 0.2 mm 6 mps 730 mmHg 93%
    05:00 -8°C° 0.2 mm 6 mps 730 mmHg 93%
    06:00 -5°C° 0 mm 6 mps 729 mmHg 93%
    07:00 -4°C° 0 mm 7 mps 729 mmHg 93%
    08:00 -3°C° 0 mm 7 mps 729 mmHg 92%
    09:00 -2°C° 0.2 mm 7 mps 729 mmHg 93%
    10:00 -2°C° 0.2 mm 7 mps 728 mmHg 94%
    11:00 -2°C° 0.2 mm 7 mps 728 mmHg 95%
    12:00 -2°C° 0.2 mm 7 mps 727 mmHg 94%
    13:00 -2°C° 0.2 mm 8 mps 727 mmHg 94%
    14:00 -2°C° 0.2 mm 8 mps 726 mmHg 93%
    15:00 -2°C° 0.1 mm 8 mps 726 mmHg 91%
    16:00 -2°C° 0.1 mm 8 mps 726 mmHg 90%
    17:00 -2°C° 0.1 mm 7 mps 726 mmHg 88%
    18:00 -2°C° 0.1 mm 7 mps 727 mmHg 88%
    19:00 -2°C° 0.1 mm 7 mps 727 mmHg 89%
    20:00 -2°C° 0.1 mm 6 mps 727 mmHg 89%
    21:00 -2°C° 0 mm 6 mps 727 mmHg 89%
    22:00 -3°C° 0 mm 6 mps 727 mmHg 89%
    23:00 -3°C° 0 mm 6 mps 727 mmHg 89%

    Day after tomorrow, 18 January, Friday

    Time Temperature Precipitation Wind Pressure Humidity
    00:00 -3°C° 0 mm 6 mps 727 mmHg 89%
    01:00 -3°C° 0 mm 6 mps 727 mmHg 89%
    02:00 -2°C° 0 mm 7 mps 727 mmHg 90%
    03:00 -2°C° 0.1 mm 7 mps 726 mmHg 90%
    04:00 -2°C° 0.1 mm 8 mps 726 mmHg 89%
    05:00 -3°C° 0.1 mm 9 mps 725 mmHg 89%
    06:00 -4°C° 0.1 mm 8 mps 726 mmHg 87%
    07:00 -3°C° 0.1 mm 7 mps 726 mmHg 84%
    08:00 -4°C° 0.1 mm 6 mps 726 mmHg 81%
    09:00 -4°C° 0 mm 7 mps 726 mmHg 81%
    10:00 -4°C° 0 mm 7 mps 727 mmHg 82%
    11:00 -6°C° 0 mm 8 mps 728 mmHg 82%
    12:00 -6°C° 0.1 mm 7 mps 728 mmHg 81%
    13:00 -6°C° 0.1 mm 7 mps 729 mmHg 80%
    14:00 -5°C° 0.1 mm 6 mps 729 mmHg 79%
    15:00 -6°C° 0 mm 6 mps 730 mmHg 81%
    16:00 -8°C° 0 mm 6 mps 731 mmHg 82%
    17:00 -8°C° 0 mm 5 mps 731 mmHg 83%
    18:00 -8°C° 0 mm 5 mps 732 mmHg 83%
    19:00 -10°C° 0 mm 5 mps 733 mmHg 83%
    20:00 -10°C° 0 mm 5 mps 733 mmHg 83%
    21:00 -10°C° 0 mm 5 mps 734 mmHg 84%
    22:00 -10°C° 0 mm 6 mps 735 mmHg 85%
    23:00 -10°C° 0 mm 6 mps 735 mmHg 87%

    19 January, Saturday

    Time Temperature Precipitation Wind Pressure Humidity
    00:00 -10°C° 0 mm 6 mps 736 mmHg 87%
    01:00 -10°C° 0 mm 6 mps 736 mmHg 87%
    02:00 -9°C° 0 mm 6 mps 737 mmHg 88%
    03:00 -10°C° 0 mm 6 mps 737 mmHg 87%
    04:00 -10°C° 0 mm 6 mps 737 mmHg 87%
    05:00 -11°C° 0 mm 5 mps 737 mmHg 86%
    06:00 -11°C° 0 mm 5 mps 738 mmHg 86%
    07:00 -11°C° 0 mm 5 mps 738 mmHg 86%
    08:00 -11°C° 0 mm 5 mps 739 mmHg 86%
    09:00 -11°C° 0 mm 5 mps 739 mmHg 86%
    10:00 -10°C° 0 mm 5 mps 740 mmHg 86%
    11:00 -8°C° 0 mm 5 mps 740 mmHg 86%
    12:00 -8°C° 0 mm 5 mps 740 mmHg 87%
    13:00 -8°C° 0 mm 5 mps 740 mmHg 89%
    14:00 -7°C° 0 mm 5 mps 740 mmHg 90%
    15:00 -8°C° 0 mm 5 mps 740 mmHg 90%
    16:00 -8°C° 0 mm 5 mps 740 mmHg 90%
    17:00 -8°C° 0 mm 5 mps 740 mmHg 91%
    18:00 -8°C° 0 mm 5 mps 740 mmHg 91%
    19:00 -9°C° 0 mm 4 mps 740 mmHg 91%
    20:00 -9°C° 0 mm 4 mps 740 mmHg 92%
    21:00 -9°C° 0 mm 4 mps 740 mmHg 92%
    22:00 -10°C° 0 mm 4 mps 740 mmHg 93%
    23:00 -9°C° 0 mm 3 mps 740 mmHg 93%

    20 January, Sunday

    Time Temperature Precipitation Wind Pressure Humidity
    00:00 -10°C° 0 mm 3 mps 740 mmHg 94%
    01:00 -10°C° 0 mm 3 mps 740 mmHg 94%
    02:00 -10°C° 0 mm 3 mps 740 mmHg 94%
    03:00 -10°C° 0 mm 3 mps 740 mmHg 95%
    04:00 -10°C° 0 mm 3 mps 740 mmHg 96%
    05:00 -10°C° 0 mm 3 mps 740 mmHg 96%
    06:00 -10°C° 0 mm 3 mps 740 mmHg 96%
    07:00 -10°C° 0 mm 3 mps 740 mmHg 97%
    08:00 -9°C° 0 mm 3 mps 740 mmHg 97%
    09:00 -8°C° 0.1 mm 3 mps 740 mmHg 96%
    10:00 -8°C° 0.1 mm 3 mps 740 mmHg 95%
    11:00 -7°C° 0.1 mm 3 mps 740 mmHg 94%
    12:00 -6°C° 0.2 mm 2 mps 740 mmHg 94%
    13:00 -5°C° 0.2 mm 2 mps 740 mmHg 94%
    14:00 -5°C° 0.2 mm 2 mps 739 mmHg 94%
    15:00 -6°C° 0.1 mm 2 mps 739 mmHg 94%
    16:00 -6°C° 0.1 mm 2 mps 739 mmHg 94%
    17:00 -7°C° 0.1 mm 2 mps 739 mmHg 94%
    18:00 -7°C° 0 mm 2 mps 739 mmHg 94%
    19:00 -8°C° 0 mm 2 mps 739 mmHg 94%
    20:00 -9°C° 0 mm 3 mps 739 mmHg 93%
    21:00 -8°C° 0 mm 2 mps 740 mmHg 93%
    22:00 -8°C° 0 mm 2 mps 740 mmHg 93%
    23:00 -8°C° 0 mm 2 mps 740 mmHg 93%

    21 January, Monday

    Time Temperature Precipitation Wind Pressure Humidity
    00:00 -8°C° 0 mm 2 mps 740 mmHg 94%
    01:00 -8°C° 0 mm 2 mps 740 mmHg 95%
    02:00 -9°C° 0 mm 2 mps 741 mmHg 96%
    03:00 -10°C° 0 mm 3 mps 741 mmHg 95%
    04:00 -9°C° 0 mm 3 mps 741 mmHg 94%
    05:00 -10°C° 0 mm 4 mps 742 mmHg 93%
    06:00 -11°C° 0.1 mm 4 mps 742 mmHg 92%
    07:00 -13°C° 0.1 mm 5 mps 743 mmHg 91%
    08:00 -13°C° 0.1 mm 5 mps 743 mmHg 91%
    09:00 -14°C° 0 mm 5 mps 744 mmHg 90%
    10:00 -14°C° 0 mm 5 mps 744 mmHg 90%
    11:00 -14°C° 0 mm 5 mps 745 mmHg 90%
    12:00 -14°C° 0 mm 4 mps 745 mmHg 90%
    13:00 -14°C° 0 mm 4 mps 745 mmHg 90%
    14:00 -14°C° 0 mm 4 mps 745 mmHg 90%
    15:00 -15°C° 0 mm 4 mps 746 mmHg 90%
    16:00 -14°C° 0 mm 3 mps 746 mmHg 91%
    17:00 -14°C° 0 mm 3 mps 746 mmHg 92%
    18:00 -15°C° 0 mm 3 mps 746 mmHg 94%
    19:00 -15°C° 0 mm 2 mps 746 mmHg 95%
    20:00 -16°C° 0 mm 2 mps 746 mmHg 96%
    21:00 -16°C° 0 mm 2 mps 746 mmHg 97%
    22:00 -16°C° 0 mm 2 mps 746 mmHg 97%
    23:00 -17°C° 0 mm 2 mps 746 mmHg 97%
    Show more